Temp
-21 -21 -21 -21 -21 -21 -22 -22 -23 -24 -25 -25 -25 -24 -23 -24 -25 -26 -25 -24 -21 -18 -16 -15 -14 -13 -14 -13 -12 -13 -12 -11 -11 -11 -11 -11 -12 -12 -12 -12 -12 -11 -11 -11
-21 -21 -21 -21 -21 -22 -23 -23 -23 -24 -24 -25 -25 -24 -24 -24 -25 -26 -26 -25 -23 -19 -17 -16 -15 -14 -13 -13 -12 -12 -12 -11 -11 -12 -11 -11 -11 -11 -12 -12 -12 -12 -11 -12
-21 -21 -21 -21 -22 -22 -24 -23 -24 -24 -24 -25 -24 -24 -25 -25 -25 -25 -26 -25 -24 -20 -17 -16 -15 -14 -13 -13 -14 -13 -12 -12 -12 -12 -12 -12 -12 -12 -12 -12 -12 -12 -12 -13
-21 -21 -21 -22 -22 -22 -23 -24 -24 -25 -24 -25 -25 -24 -25 -25 -25 -25 -26 -25 -24 -21 -18 -17 -16 -15 -14 -13 -13 -13 -14 -13 -12 -12 -11 -11 -12 -12 -12 -12 -12 -12 -12 -12
-21 -21 -22 -22 -23 -23 -23 -24 -24 -24 -25 -25 -25 -25 -25 -25 -25 -25 -25 -25 -24 -22 -19 -17 -16 -15 -14 -14 -14 -14 -14 -15 -11 -12 -12 -12 -11 -12 -12 -12 -12 -12 -12 -13
-21 -21 -22 -22 -23 -23 -23 -23 -24 -24 -24 -25 -25 -25 -25 -25 -25 -25 -25 -25 -24 -22 -19 -18 -17 -15 -14 -16 -14 -14 -14 -14 -13 -12 -12 -12 -12 -13 -12 -12 -13 -13 -12 -13
-21 -21 -22 -22 -23 -24 -23 -23 -21 -22 -23 -24 -25 -25 -25 -25 -25 -25 -25 -25 -24 -22 -20 -18 -17 -16 -15 -14 -14 -14 -14 -14 -14 -14 -12 -12 -12 -11 -12 -12 -12 -12 -13 -13
-21 -22 -22 -22 -21 -21 -21 -22 -23 -23 -23 -24 -25 -25 -26 -25 -25 -25 -25 -25 -25 -22 -20 -18 -17 -16 -15 -15 -14 -14 -15 -15 -15 -13 -13 -13 -12 -12 -12 -12 -13 -13 -12 -13
-22 -23 -22 -22 -21 -20 -21 -22 -23 -23 -23 -24 -24 -26 -26 -25 -25 -23 -24 -25 -25 -23 -21 -19 -17 -17 -16 -16 -16 -16 -15 -14 -13 -13 -13 -13 -13 -13 -13 -13 -13 -13 -13 -13
-22 -22 -22 -21 -22 -22 -21 -21 -22 -23 -23 -24 -26 -25 -26 -25 -25 -25 -24 -25 -25 -23 -21 -19 -17 -16 -15 -16 -15 -15 -14 -13 -14 -14 -14 -13 -13 -13 -13 -12 -13 -13 -13 -13
-22 -21 -21 -20 -19 -19 -20 -20 -21 -22 -23 -24 -24 -25 -26 -25 -26 -25 -25 -25 -26 -24 -21 -18 -17 -17 -16 -15 -15 -15 -15 -15 -15 -14 -13 -13 -13 -13 -13 -14 -13 -13 -14 -14
-20 -20 -20 -20 -21 -21 -20 -20 -20 -21 -23 -23 -24 -25 -25 -26 -26 -26 -26 -26 -26 -24 -21 -19 -17 -17 -16 -15 -16 -16 -15 -15 -14 -14 -13 -14 -14 -14 -14 -14 -13 -14 -14 -14
-19 -20 -20 -20 -20 -20 -20 -20 -20 -20 -21 -22 -23 -25 -25 -26 -27 -27 -27 -27 -26 -24 -21 -19 -17 -17 -16 -16 -16 -16 -16 -15 -15 -14 -15 -15 -14 -14 -14 -14 -14 -14 -14 -14
-19 -19 -19 -19 -20 -20 -20 -20 -20 -20 -21 -22 -23 -24 -25 -26 -26 -26 -26 -26 -25 -23 -20 -18 -17 -17 -16 -17 -16 -16 -16 -16 -17 -17 -16 -16 -15 -15 -15 -15 -15 -15 -15 -15
-18 -19 -19 -18 -19 -20 -20 -20 -20 -21 -22 -22 -23 -24 -23 -24 -25 -25 -25 -25 -24 -21 -19 -18 -17 -16 -17 -16 -16 -16 -16 -17 -17 -16 -15 -15 -15 -16 -16 -15 -15 -15 -15 -15
-18 -19 -19 -19 -20 -20 -21 -20 -21 -21 -22 -22 -22 -22 -22 -22 -23 -23 -23 -22 -21 -20 -18 -17 -17 -17 -17 -18 -15 -16 -16 -17 -16 -16 -15 -16 -16 -17 -16 -16 -16 -16 -16 -16
-18 -18 -19 -19 -20 -20 -20 -20 -21 -21 -21 -21 -21 -21 -22 -21 -21 -21 -20 -20 -19 -18 -17 -17 -18 -17 -16 -16 -15 -16 -17 -17 -17 -17 -17 -18 -17 -17 -16 -16 -16 -16 -16 -16
-18 -18 -19 -19 -19 -19 -21 -21 -21 -21 -21 -21 -20 -20 -20 -21 -21 -21 -21 -20 -19 -18 -19 -19 -19 -17 -16 -16 -17 -18 -18 -18 -18 -18 -17 -17 -17 -16 -17 -17 -16 -16 -16 -16
-18 -18 -18 -19 -19 -20 -20 -20 -20 -20 -21 -21 -21 -21 -20 -19 -20 -19 -19 -19 -19 -19 -19 -18 -18 -18 -18 -18 -18 -18 -19 -18 -18 -18 -17 -17 -17 -17 -16 -16 -17 -17 -17 -18
-18 -18 -19 -19 -19 -19 -20 -20 -20 -20 -20 -20 -21 -20 -20 -19 -19 -19 -19 -19 -18 -18 -18 -18 -18 -18 -18 -18 -18 -18 -18 -18 -18 -18 -18 -17 -17 -17 -18 -18 -19 -19 -19 -19
-19 -19 -19 -19 -18 -19 -20 -20 -20 -19 -20 -20 -20 -20 -20 -19 -17 -18 -19 -19 -19 -19 -19 -19 -19 -19 -18 -18 -18 -18 -18 -18 -18 -18 -18 -19 -19 -19 -19 -19 -19 -20 -20 -20
-19 -19 -19 -19 -19 -19 -19 -20 -20 -20 -19 -20 -20 -20 -20 -19 -19 -19 -19 -19 -19 -19 -19 -19 -18 -18 -18 -18 -18 -19 -19 -19 -19 -19 -19 -19 -19 -20 -20 -20 -20 -20 -20 -21
-19 -19 -19 -19 -19 -19 -19 -20 -19 -19 -19 -19 -20 -19 -19 -19 -19 -19 -20 -20 -20 -20 -20 -20 -20 -20 -20 -20 -20 -20 -20 -20 -20 -20 -20 -20 -20 -20 -20 -20 -20 -21 -21 -21
-19 -19 -19 -19 -19 -19 -19 -19 -19 -19 -19 -19 -20 -19 -19 -19 -19 -19 -19 -19 -19 -20 -20 -20 -20 -20 -20 -20 -20 -20 -20 -20 -20 -20 -20 -20 -21 -21 -21 -21 -21 -21 -21 -21
-18 -19 -19 -19 -19 -19 -19 -19 -19 -19 -20 -20 -19 -20 -20 -20 -20 -20 -20 -20 -20 -20 -20 -20 -20 -20 -20 -20 -20 -20 -21 -21 -21 -21 -20 -20 -21 -21 -21 -21 -21 -21 -21 -22
-18 -18 -18 -19 -19 -19 -19 -19 -19 -19 -19 -20 -20 -20 -20 -20 -20 -20 -20 -20 -21 -21 -21 -21 -20 -20 -21 -21 -21 -21 -21 -21 -20 -20 -21 -21 -21 -21 -21 -21 -21 -22 -22 -22
Height
5571 5562 5554 5546 5538 5530 5522 5515 5506 5500 5489 5478 5476 5475 5479 5483 5483 5483 5490 5500 5516 5537 5553 5569 5587 5605 5619 5629 5644 5654 5663 5665 5675 5677 5683 5690 5699 5707 5712 5717 5722 5726 5730 5733
5565 5555 5547 5538 5530 5523 5513 5507 5501 5494 5484 5475 5472 5470 5472 5474 5476 5476 5480 5488 5501 5522 5540 5558 5575 5591 5606 5621 5633 5644 5657 5663 5664 5673 5681 5686 5691 5697 5704 5709 5715 5720 5723 5726
5557 5547 5539 5530 5524 5517 5509 5501 5495 5487 5482 5474 5468 5467 5466 5466 5467 5471 5474 5481 5489 5509 5528 5546 5565 5581 5595 5610 5625 5632 5646 5654 5660 5669 5675 5683 5687 5692 5697 5704 5711 5714 5714 5717
5548 5539 5531 5525 5519 5510 5504 5497 5489 5483 5476 5471 5467 5466 5462 5460 5461 5463 5466 5472 5483 5499 5516 5533 5551 5569 5587 5602 5615 5626 5635 5645 5657 5666 5662 5671 5681 5687 5694 5698 5702 5707 5709 5712
5541 5531 5525 5520 5513 5505 5497 5490 5481 5477 5473 5470 5466 5465 5461 5460 5458 5458 5459 5461 5465 5482 5501 5521 5541 5559 5578 5593 5608 5623 5631 5644 5648 5663 5667 5671 5676 5683 5690 5693 5699 5702 5704 5707
5534 5527 5522 5516 5509 5499 5490 5482 5477 5469 5466 5466 5463 5462 5460 5458 5456 5454 5455 5457 5463 5477 5491 5510 5532 5553 5573 5587 5602 5619 5628 5637 5641 5650 5644 5666 5662 5677 5686 5689 5693 5697 5698 5700
5532 5525 5520 5511 5507 5500 5490 5478 5471 5467 5463 5462 5460 5458 5456 5455 5452 5450 5452 5454 5459 5472 5488 5506 5527 5547 5567 5581 5598 5614 5623 5630 5638 5645 5652 5658 5666 5672 5678 5682 5686 5689 5692 5694
5531 5524 5517 5508 5501 5495 5484 5479 5471 5465 5461 5460 5458 5456 5455 5452 5450 5448 5449 5453 5458 5470 5488 5509 5527 5546 5563 5577 5594 5609 5619 5626 5635 5646 5651 5654 5659 5659 5664 5667 5677 5681 5681 5683
5530 5524 5515 5509 5502 5494 5488 5481 5472 5465 5460 5458 5457 5455 5453 5448 5445 5442 5444 5450 5459 5470 5487 5507 5525 5541 5557 5571 5587 5601 5612 5625 5635 5645 5648 5651 5651 5658 5662 5666 5668 5673 5676 5677
5532 5526 5519 5514 5509 5498 5489 5480 5473 5464 5459 5456 5454 5453 5451 5448 5443 5440 5442 5447 5455 5466 5481 5499 5522 5545 5561 5574 5588 5603 5613 5624 5630 5638 5645 5646 5651 5652 5653 5659 5660 5661 5663 5665
5536 5530 5526 5519 5508 5500 5495 5486 5474 5465 5459 5455 5454 5453 5452 5446 5444 5444 5445 5451 5459 5468 5486 5508 5529 5547 5563 5577 5590 5602 5611 5618 5627 5636 5639 5644 5646 5644 5649 5653 5656 5656 5659 5659
5544 5539 5532 5523 5515 5508 5499 5488 5478 5468 5462 5459 5456 5455 5454 5450 5447 5446 5448 5456 5463 5474 5492 5513 5532 5550 5565 5579 5590 5600 5609 5616 5623 5632 5636 5637 5639 5639 5640 5643 5649 5648 5649 5652
5552 5547 5542 5533 5527 5516 5507 5493 5483 5475 5465 5464 5462 5461 5460 5456 5454 5453 5454 5461 5470 5482 5500 5521 5539 5556 5570 5582 5593 5600 5609 5616 5621 5628 5627 5633 5635 5636 5636 5639 5642 5639 5644 5645
5559 5555 5548 5541 5534 5525 5515 5503 5493 5488 5478 5474 5471 5465 5467 5465 5465 5465 5467 5471 5480 5494 5512 5531 5548 5564 5578 5586 5595 5602 5610 5617 5620 5624 5625 5628 5631 5632 5632 5633 5634 5635 5635 5635
5571 5565 5559 5551 5544 5536 5527 5518 5508 5500 5491 5487 5483 5481 5480 5478 5478 5477 5481 5485 5495 5509 5526 5543 5558 5572 5583 5591 5598 5604 5611 5616 5621 5625 5621 5622 5627 5629 5628 5628 5628 5628 5628 5626
5581 5576 5568 5561 5554 5547 5540 5531 5522 5513 5508 5502 5499 5500 5497 5494 5494 5496 5498 5504 5514 5527 5541 5555 5567 5578 5586 5592 5598 5606 5611 5614 5619 5618 5620 5623 5623 5623 5622 5621 5622 5620 5619 5617
5593 5589 5581 5571 5565 5560 5555 5544 5537 5528 5525 5522 5518 5512 5512 5512 5517 5515 5518 5525 5534 5543 5554 5566 5578 5579 5587 5593 5599 5603 5608 5613 5617 5619 5622 5621 5618 5619 5618 5617 5616 5614 5612 5610
5604 5600 5595 5586 5579 5564 5563 5560 5555 5548 5543 5537 5533 5532 5532 5532 5536 5538 5541 5546 5550 5559 5566 5572 5577 5583 5588 5594 5599 5604 5609 5612 5615 5617 5617 5617 5615 5614 5613 5611 5608 5606 5602 5598
5617 5612 5604 5599 5584 5580 5577 5573 5570 5566 5560 5556 5554 5551 5550 5549 5551 5555 5559 5563 5566 5570 5577 5582 5586 5589 5593 5598 5602 5606 5609 5612 5614 5614 5613 5612 5611 5609 5606 5604 5601 5597 5593 5589
5626 5620 5616 5609 5602 5594 5592 5587 5582 5578 5573 5573 5572 5571 5568 5567 5574 5568 5571 5573 5577 5580 5584 5587 5590 5594 5597 5600 5603 5605 5606 5607 5608 5609 5609 5606 5605 5602 5599 5596 5593 5589 5586 5583
5632 5628 5626 5620 5611 5606 5603 5600 5596 5595 5590 5586 5584 5583 5583 5584 5583 5581 5582 5584 5586 5588 5590 5591 5593 5596 5599 5600 5602 5603 5603 5603 5602 5601 5600 5598 5597 5595 5593 5590 5586 5583 5579 5576
5638 5635 5631 5627 5621 5616 5612 5610 5610 5605 5600 5596 5594 5594 5593 5592 5589 5588 5588 5590 5590 5592 5594 5595 5597 5598 5599 5600 5601 5601 5600 5600 5599 5598 5596 5594 5591 5589 5587 5583 5579 5576 5572 5567
5642 5639 5636 5633 5628 5624 5620 5618 5615 5612 5609 5606 5604 5603 5601 5599 5597 5596 5596 5596 5596 5597 5597 5598 5599 5599 5600 5600 5600 5599 5599 5598 5597 5596 5594 5592 5589 5586 5582 5579 5576 5571 5565 5560
5646 5643 5640 5637 5633 5629 5627 5624 5621 5618 5615 5613 5611 5609 5607 5605 5603 5602 5602 5602 5601 5601 5601 5601 5602 5601 5601 5600 5600 5600 5599 5597 5595 5593 5592 5590 5587 5584 5579 5574 5569 5565 5561 5556
5648 5646 5643 5640 5636 5633 5631 5628 5625 5623 5621 5618 5616 5614 5612 5610 5608 5606 5605 5605 5604 5604 5604 5603 5603 5602 5601 5601 5601 5600 5599 5597 5596 5594 5592 5588 5585 5581 5577 5572 5568 5562 5556 5549
5648 5646 5644 5642 5639 5637 5634 5631 5628 5626 5623 5621 5618 5616 5614 5612 5611 5610 5609 5608 5608 5607 5607 5606 5606 5605 5605 5604 5603 5602 5600 5599 5596 5593 5590 5586 5582 5577 5572 5567 5562 5555 5548 5540
Wind_Speed
40 41 38 41 35 30 27 31 31 28 27 31 31 32 33 37 36 31 40 50 69 79 84 83 77 71 70 76 64 61 51 41 59 39 41 53 60 50 46 41 40 38 36 33
43 42 39 38 29 25 25 26 25 20 27 30 21 25 32 34 28 25 31 42 63 77 85 85 79 74 75 73 66 66 45 45 45 46 38 36 48 51 45 45 41 40 40 38
44 40 40 31 27 22 21 26 24 25 22 19 24 13 14 21 28 27 22 35 53 74 84 84 80 76 75 74 69 73 51 32 28 34 46 36 34 39 47 46 38 32 47 37
42 40 36 23 25 24 21 23 27 24 21 18 19 15 7 17 16 19 22 33 46 70 83 85 82 78 75 73 74 74 62 61 28 29 36 31 47 26 31 33 35 29 22 26
38 33 22 22 26 28 28 29 31 26 17 12 15 13 10 8 13 22 17 37 50 68 80 83 83 78 74 73 71 68 58 51 29 47 40 38 33 36 36 30 27 24 24 26
34 25 21 22 28 31 33 30 24 19 10 10 8 12 10 12 12 14 19 33 50 66 80 82 81 78 73 67 66 62 61 50 44 32 33 42 30 34 37 36 33 32 35 29
27 23 29 26 20 22 26 28 32 25 15 8 8 6 7 12 11 14 16 23 47 64 77 81 79 76 71 69 61 62 64 62 46 38 19 36 39 34 38 39 24 23 31 33
30 33 31 28 28 26 25 27 29 24 13 5 5 10 16 15 15 16 18 23 37 59 73 76 74 71 67 65 60 58 57 49 55 46 36 24 27 40 38 37 33 33 36 29
34 34 30 27 30 29 28 24 26 22 14 9 14 17 20 17 18 16 8 16 31 53 67 72 69 69 66 63 59 56 56 52 45 44 34 19 27 21 40 39 31 37 43 31
35 30 25 24 24 23 28 29 25 26 20 10 7 16 13 17 12 7 8 21 22 48 64 70 69 63 62 61 55 54 55 55 43 44 32 21 22 25 24 27 39 24 38 32
33 31 30 29 31 31 29 30 34 33 26 18 12 11 6 16 13 9 21 16 19 39 59 67 66 60 61 57 51 50 55 52 47 37 32 30 20 18 36 47 47 50 43 46
37 38 31 27 32 37 39 35 40 38 28 17 16 11 10 15 13 10 20 18 18 33 55 62 62 58 55 54 45 47 50 51 52 38 26 18 24 14 28 33 43 36 42 42
35 36 39 33 35 35 35 36 38 38 29 22 17 18 15 15 22 22 24 23 25 36 53 56 57 55 51 46 49 41 47 47 48 52 48 26 24 16 15 22 28 23 39 42
37 39 41 38 36 38 46 49 43 43 33 22 28 22 26 29 20 24 25 27 31 38 49 51 50 49 48 42 44 46 41 42 38 36 34 39 33 33 27 22 26 29 33 35
38 38 42 41 42 45 47 48 41 43 58 40 43 44 31 28 28 32 30 31 33 40 44 44 42 41 39 41 40 35 36 34 29 34 25 32 34 30 33 30 32 34 36 41
32 37 38 39 40 50 50 50 41 35 41 60 45 41 49 33 41 45 37 36 35 38 38 36 34 33 33 30 35 30 37 36 37 34 28 34 37 36 37 36 39 41 45 46
36 35 37 41 42 44 48 53 56 51 37 38 49 50 43 52 47 54 49 36 36 37 34 30 30 25 29 31 31 32 39 37 37 32 34 36 39 40 39 40 40 42 44 45
36 35 38 42 45 54 48 48 49 51 49 42 39 44 52 46 42 39 39 45 30 30 36 31 23 27 27 26 26 31 34 35 32 32 36 37 39 41 41 36 41 41 40 41
35 37 40 40 46 44 42 44 46 47 48 47 46 41 44 48 45 45 41 34 27 25 23 23 18 12 13 14 15 18 21 24 28 30 28 30 32 35 39 39 36 35 34 35
28 32 34 36 40 40 37 38 41 42 43 39 38 38 38 36 31 37 35 32 29 27 25 21 15 13 10 8 6 8 14 18 19 21 24 24 25 27 28 28 29 30 32 34
23 24 25 28 33 34 32 31 32 29 35 32 33 32 30 31 33 32 28 25 23 21 19 15 12 10 11 5 7 9 11 13 14 15 15 17 20 23 26 27 28 31 34 37
16 17 20 22 26 27 26 24 21 24 26 26 26 26 26 26 29 32 31 27 26 22 19 15 13 11 8 5 3 3 5 8 12 13 19 20 22 24 27 30 33 34 34 35
8 12 14 17 20 21 21 21 19 18 19 19 19 17 17 17 19 20 19 18 17 14 13 10 8 6 4 1 3 6 9 11 14 17 20 23 25 26 27 29 32 35 37 36
9 9 12 15 17 19 18 16 15 14 14 14 14 14 13 13 14 13 13 12 10 9 7 5 4 4 5 7 9 12 15 18 20 20 20 21 24 27 28 29 28 31 35 40
9 11 13 16 17 16 14 14 12 11 11 11 11 11 11 11 11 11 11 10 9 9 9 9 9 10 11 12 12 12 13 15 17 18 17 19 20 23 27 30 33 36 40 44
12 12 12 15 16 15 14 12 10 10 9 9 12 13 15 17 18 18 17 17 17 16 16 15 15 14 13 13 13 13 14 15 15 15 18 20 23 25 28 33 37 41 46 51
Wind_Direction
318 316 315 316 313 307 299 311 321 318 300 289 280 260 251 258 267 262 235 225 211 203 203 210 210 207 208 212 206 211 209 224 224 220 218 229 221 223 224 227 226 231 236 234
316 313 314 315 313 307 297 314 321 340 310 304 301 281 260 259 268 266 237 223 211 202 201 207 209 206 206 204 205 201 206 210 218 221 225 231 217 220 222 224 226 230 233 232
318 314 320 315 316 312 303 319 328 325 330 306 306 304 281 265 260 259 247 218 213 200 201 204 208 207 207 210 208 213 208 200 229 219 236 226 211 226 230 227 228 242 232 228
318 314 317 308 323 325 320 323 321 324 329 345 305 331 304 258 262 254 238 213 211 199 201 202 206 207 207 209 210 213 221 221 233 222 220 224 238 242 226 230 233 231 239 243
328 323 319 320 332 331 330 327 318 317 317 332 322 353 308 302 265 255 246 209 202 198 200 202 204 206 206 208 211 213 218 224 213 233 242 235 230 236 244 250 242 255 254 263
339 343 344 336 336 337 333 324 325 324 317 325 325 338 337 319 302 285 235 213 202 199 198 200 203 204 204 209 208 210 208 211 215 206 236 227 225 229 240 245 247 249 260 251
349 1 354 347 352 336 329 326 346 349 346 352 336 347 352 349 309 276 238 221 201 199 198 198 200 201 203 208 204 205 205 216 223 222 217 230 232 225 243 248 228 237 247 250
2 4 359 352 356 4 338 340 344 355 357 73 39 1 337 319 316 263 253 220 205 198 198 197 199 199 200 205 202 206 211 213 222 231 228 247 225 225 223 221 227 237 242 242
6 8 2 5 359 353 347 342 348 354 1 343 340 350 328 338 314 275 262 220 209 195 196 196 197 198 198 200 203 200 205 210 209 216 210 231 237 234 230 235 238 235 241 245
9 9 15 20 12 353 359 0 352 354 356 3 341 6 2 336 357 346 177 204 192 195 194 193 195 194 196 199 203 200 206 205 212 223 221 227 236 229 224 214 230 242 236 251
22 27 33 21 18 23 25 9 359 355 360 358 346 2 17 348 4 129 167 178 199 186 191 190 190 191 196 199 200 205 210 216 215 206 216 221 230 222 229 245 250 253 257 254
41 40 34 29 33 28 23 14 7 11 16 41 24 47 66 13 45 149 145 159 177 170 184 186 188 190 193 198 197 203 213 217 219 206 204 242 232 238 227 231 238 251 250 258
40 40 40 45 39 30 19 12 20 27 37 58 56 87 36 62 72 96 122 137 144 160 176 181 186 191 194 198 204 203 211 215 220 219 242 245 239 231 229 241 241 254 256 261
45 40 43 35 32 38 39 40 53 54 48 74 68 89 80 75 87 88 102 113 131 153 168 175 181 189 195 198 201 207 212 217 233 233 261 264 258 268 259 272 284 283 279 278
55 55 50 51 45 45 47 47 62 61 67 73 73 66 56 75 68 81 90 105 130 151 161 170 177 187 196 206 209 212 217 226 231 238 233 243 257 271 287 281 282 280 281 284
55 55 53 52 49 55 56 52 55 59 69 69 76 69 65 80 65 74 83 105 123 140 150 163 176 186 192 201 215 223 211 214 223 254 259 261 261 291 288 287 283 287 288 288
56 54 58 60 59 58 56 56 56 58 70 67 67 77 70 69 72 78 79 97 119 135 146 158 139 188 200 209 218 215 215 221 234 248 257 275 282 286 288 283 283 284 285 283
57 57 57 64 67 62 58 58 57 61 65 66 68 72 74 85 88 83 84 84 96 125 120 133 164 188 198 207 213 206 218 233 245 259 264 271 275 275 276 284 295 294 293 292
62 60 63 54 58 63 66 67 65 63 65 67 69 76 77 77 77 78 86 96 100 104 122 147 168 173 186 202 210 221 233 238 246 258 258 270 273 280 289 294 292 294 294 295
62 60 59 63 65 65 63 67 69 71 75 71 72 79 89 90 83 83 87 91 87 92 100 103 113 124 139 153 190 242 254 259 264 271 271 280 280 284 289 295 296 297 301 304
57 54 51 56 61 64 64 63 68 72 74 79 82 86 89 95 86 91 95 94 93 94 100 113 124 140 140 173 216 256 263 268 276 285 294 296 295 291 294 300 305 308 309 309
55 48 50 50 54 58 60 59 60 66 75 78 81 85 93 96 99 103 106 110 112 114 120 125 128 129 139 159 186 245 276 282 286 276 296 300 307 311 312 313 314 316 318 320
45 53 43 41 47 48 49 48 49 53 60 69 74 80 85 87 89 91 94 100 105 107 101 98 101 108 112 111 325 322 317 318 316 316 316 318 320 322 324 324 324 325 329 334
4 20 31 32 28 30 33 38 44 49 59 66 69 71 72 77 81 82 86 87 86 83 88 85 53 20 354 344 337 334 335 334 334 337 339 337 335 334 337 341 344 343 337 333
338 341 348 1 10 16 20 23 35 51 57 63 66 65 65 65 65 64 59 57 52 43 35 30 24 20 15 12 11 13 9 1 356 353 358 1 359 355 348 346 342 337 332 328
322 319 326 332 347 351 2 10 16 25 30 41 55 61 64 69 71 71 70 70 69 68 65 59 54 49 42 37 32 26 28 26 19 9 354 354 351 344 337 331 328 324 322 321